| time (UTC) | temp C | wind direction | speed KPH | gust KPH | rain 1hr cm | rain 24hr cm | rain mn cm | humidity % | barometer mb |
| 20260510164622 | 12 | 341 | 8.0 | 17.7 | 0.00 | 1.30 | 0.00 | 43 | 1015.8 |
| 20260510163100 | 12 | 74 | 4.8 | 14.5 | 0.00 | 1.30 | 0.00 | 46 | 1015.6 |
| 20260510161552 | 12 | 22 | 6.4 | 24.1 | 0.00 | 1.30 | 0.00 | 47 | 1015.5 |
| 20260510154555 | 12 | 59 | 4.8 | 14.5 | 0.00 | 1.30 | 0.00 | 52 | 1015.2 |
| 20260510153045 | 12 | 265 | 3.2 | 12.9 | 0.00 | 1.30 | 0.00 | 55 | 1015.3 |
| 20260510151543 | 12 | 84 | 3.2 | 9.7 | 0.00 | 1.30 | 0.00 | 56 | 1015.0 |
| 20260510150042 | 11 | 69 | 3.2 | 14.5 | 0.00 | 1.30 | 0.00 | 57 | 1014.8 |
| 20260510144547 | 11 | 38 | 8.0 | 20.9 | 0.00 | 1.30 | 0.00 | 56 | 1014.8 |
| 20260510143042 | 11 | 49 | 4.8 | 22.5 | 0.00 | 1.30 | 0.00 | 56 | 1014.7 |
| 20260510141539 | 11 | 53 | 4.8 | 16.1 | 0.00 | 1.30 | 0.00 | 63 | 1014.6 |
| 20260510140038 | 10 | 120 | 3.2 | 14.5 | 0.00 | 1.30 | 0.00 | 67 | 1014.6 |
| 20260510134539 | 10 | 71 | 4.8 | 12.9 | 0.00 | 1.30 | 0.00 | 68 | 1014.5 |
| 20260510133034 | 10 | 9 | 4.8 | 9.7 | 0.00 | 1.30 | 0.00 | 71 | 1014.2 |
| 20260510131535 | 8 | 42 | 4.8 | 14.5 | 0.00 | 1.30 | 0.00 | 73 | 1014.0 |
| 20260510130027 | 8 | 27 | 3.2 | 20.9 | 0.00 | 1.30 | 0.00 | 78 | 1013.6 |
| 20260510124523 | 8 | 336 | 3.2 | 8.0 | 0.00 | 1.30 | 0.00 | 82 | 1013.4 |
| 20260510123027 | 8 | 54 | 3.2 | 14.5 | 0.00 | 1.30 | 0.00 | 83 | 1013.1 |
| 20260510121522 | 8 | 37 | 3.2 | 12.9 | 0.00 | 1.30 | 0.00 | 86 | 1012.8 |
| 20260510120020 | 8 | 40 | 4.8 | 14.5 | 0.00 | 1.30 | 0.00 | 87 | 1012.7 |
| 20260510114513 | 8 | 24 | 3.2 | 9.7 | 0.00 | 1.30 | 0.00 | 88 | 1012.4 |
| 20260510113018 | 8 | 28 | 4.8 | 12.9 | 0.00 | 1.30 | 0.00 | 86 | 1012.0 |
| 20260510111508 | 8 | 69 | 3.2 | 12.9 | 0.00 | 1.30 | 0.00 | 87 | 1011.7 |
| 20260510110016 | 8 | 12 | 4.8 | 9.7 | 0.00 | 1.30 | 0.00 | 88 | 1011.2 |
| 20260510104502 | 8 | 56 | 1.6 | 9.7 | 0.00 | 1.30 | 0.00 | 90 | 1010.9 |
| 20260510103100 | 8 | 42 | 1.6 | 4.8 | 0.00 | 1.30 | 0.00 | 90 | 1010.5 |
| 20260510101601 | 8 | 23 | 3.2 | 8.0 | 0.00 | 1.30 | 0.00 | 90 | 1010.2 |
| 20260510100056 | 8 | 51 | 4.8 | 9.7 | 0.00 | 1.30 | 0.00 | 88 | 1010.0 |
| 20260510094608 | 8 | 45 | 0.0 | 4.8 | 0.00 | 1.30 | 0.00 | 85 | 1010.1 |
| 20260510093117 | 8 | 44 | 1.6 | 9.7 | 0.00 | 1.30 | 0.00 | 84 | 1009.9 |
| 20260510091551 | 8 | 30 | 3.2 | 6.4 | 0.00 | 1.30 | 0.00 | 84 | 1009.5 |
| 20260510090049 | 8 | 61 | 0.0 | 6.4 | 0.00 | 1.30 | 0.00 | 86 | 1009.3 |
| 20260510084546 | 8 | 69 | 0.0 | 1.6 | 0.00 | 1.30 | 0.00 | 88 | 1008.9 |
| 20260510083044 | 8 | 69 | 0.0 | 0.0 | 0.00 | 1.30 | 0.00 | 85 | 1008.9 |
| 20260510081542 | 8 | 69 | 0.0 | 3.2 | 0.00 | 1.30 | 0.00 | 84 | 1008.8 |
| 20260510080039 | 9 | 78 | 0.0 | 4.8 | 0.00 | 1.30 | 0.00 | 83 | 1008.7 |
| 20260510074537 | 9 | 31 | 0.0 | 16.1 | 0.00 | 1.30 | 0.00 | 83 | 1008.2 |
| 20260510073042 | 9 | 80 | 4.8 | 12.9 | 0.00 | 1.30 | 0.00 | 83 | 1008.0 |
| 20260510071532 | 9 | 38 | 0.0 | 8.0 | 0.00 | 1.30 | 0.00 | 86 | 1007.9 |
| 20260510070032 | 10 | 36 | 3.2 | 9.7 | 0.00 | 1.30 | 0.00 | 89 | 1007.6 |
| 20260510064526 | 10 | 49 | 4.8 | 14.5 | 0.00 | 1.42 | 0.00 | 93 | 1007.3 |
| 20260510063024 | 10 | 72 | 4.8 | 17.7 | 0.00 | 1.42 | 0.00 | 93 | 1007.2 |
| 20260510061519 | 11 | 325 | 4.8 | 14.5 | 0.00 | 1.42 | 0.00 | 96 | 1007.2 |
| 20260510060017 | 11 | 208 | 0.0 | 0.0 | 0.00 | 1.73 | 0.00 | 96 | 1006.9 |
| 20260510054516 | 12 | 208 | 0.0 | 3.2 | 0.00 | 1.73 | 0.00 | 97 | 1006.7 |
| 20260510053039 | 12 | 207 | 0.0 | 0.0 | 0.00 | 1.73 | 0.00 | 96 | 1006.8 |
| 20260510051513 | 11 | 207 | 0.0 | 3.2 | 0.00 | 1.73 | 0.00 | 96 | 1006.5 |
| 20260510050013 | 11 | 205 | 0.0 | 4.8 | 0.00 | 1.88 | 0.00 | 96 | 1006.0 |
| 20260510044506 | 12 | 170 | 0.0 | 6.4 | 0.00 | 1.88 | 0.00 | 96 | 1005.6 |
| 20260510043006 | 11 | 182 | 0.0 | 4.8 | 0.18 | 1.88 | 0.00 | 96 | 1005.4 |
| 20260510041507 | 12 | 248 | 0.0 | 1.6 | 0.23 | 1.88 | 0.00 | 96 | 1005.5 |
| 20260510040001 | 12 | 259 | 0.0 | 3.2 | 0.28 | 1.98 | 1.88 | 95 | 1005.4 |
| 20260510034501 | 12 | 259 | 0.0 | 6.4 | 0.28 | 1.98 | 1.88 | 95 | 1005.2 |
| 20260510033001 | 12 | 269 | 1.6 | 4.8 | 0.08 | 1.78 | 1.68 | 95 | 1005.8 |
| 20260510031600 | 12 | 247 | 3.2 | 16.1 | 0.15 | 1.75 | 1.65 | 95 | 1005.9 |
| 20260510030104 | 12 | 261 | 3.2 | 11.3 | 0.18 | 1.70 | 1.60 | 95 | 1005.5 |
| 20260510024607 | 12 | 238 | 1.6 | 6.4 | 0.18 | 1.73 | 1.60 | 95 | 1005.5 |
| 20260510023058 | 12 | 261 | 1.6 | 20.9 | 0.18 | 1.73 | 1.60 | 94 | 1005.2 |
| 20260510021559 | 12 | 298 | 9.7 | 25.7 | 0.08 | 1.63 | 1.50 | 96 | 1006.2 |
| 20260510020059 | 12 | 241 | 0.0 | 0.0 | 0.00 | 1.55 | 1.42 | 96 | 1004.8 |
| 20260510014558 | 12 | 241 | 0.0 | 0.0 | 0.00 | 1.57 | 1.42 | 96 | 1004.8 |
| 20260510013057 | 12 | 241 | 0.0 | 0.0 | 0.00 | 1.57 | 1.42 | 95 | 1004.6 |
| 20260510011556 | 12 | 241 | 0.0 | 3.2 | 0.00 | 1.57 | 1.42 | 95 | 1004.5 |
| 20260510010055 | 12 | 246 | 1.6 | 6.4 | 0.03 | 1.57 | 1.42 | 95 | 1004.4 |
| 20260510004559 | 12 | 247 | 0.0 | 6.4 | 0.03 | 1.70 | 1.42 | 94 | 1004.1 |
| 20260510003056 | 12 | 256 | 0.0 | 12.9 | 0.08 | 1.70 | 1.42 | 94 | 1004.3 |
| 20260510001553 | 12 | 270 | 3.2 | 12.9 | 0.18 | 1.70 | 1.42 | 94 | 1004.2 |
| 20260510000058 | 12 | 261 | 3.2 | 11.3 | 0.69 | 1.68 | 1.40 | 94 | 1004.2 |
| 20260509234551 | 12 | 263 | 6.4 | 22.5 | 0.81 | 1.88 | 1.40 | 93 | 1004.4 |
| 20260509233051 | 12 | 254 | 4.8 | 22.5 | 0.76 | 1.83 | 1.35 | 92 | 1004.7 |
| 20260509231550 | 13 | 263 | 8.0 | 30.6 | 0.64 | 1.70 | 1.22 | 90 | 1004.3 |
| 20260509230054 | 17 | 232 | 16.1 | 27.4 | 0.10 | 1.17 | 0.69 | 74 | 1004.4 |
| 20260509224549 | 19 | 255 | 11.3 | 27.4 | 0.00 | 1.30 | 0.58 | 60 | 1002.0 |
| 20260509223047 | 20 | 261 | 9.7 | 33.8 | 0.00 | 1.30 | 0.58 | 59 | 1001.7 |
| 20260509221546 | 20 | 252 | 9.7 | 22.5 | 0.00 | 1.30 | 0.58 | 59 | 1002.0 |
| 20260509220045 | 20 | 303 | 8.0 | 25.7 | 0.00 | 1.30 | 0.58 | 60 | 1002.0 |
| 20260509214559 | 20 | 210 | 9.7 | 25.7 | 0.00 | 1.42 | 0.58 | 59 | 1001.9 |
| 20260509213045 | 20 | 237 | 9.7 | 27.4 | 0.00 | 1.42 | 0.58 | 59 | 1001.8 |
| 20260509211542 | 20 | 265 | 11.3 | 30.6 | 0.00 | 1.42 | 0.58 | 61 | 1001.8 |
| 20260509210043 | 20 | 214 | 12.9 | 25.7 | 0.00 | 1.42 | 0.58 | 62 | 1002.2 |
| 20260509204542 | 20 | 298 | 8.0 | 24.1 | 0.00 | 1.55 | 0.58 | 64 | 1002.6 |
| 20260509203035 | 20 | 130 | 8.0 | 24.1 | 0.00 | 1.55 | 0.58 | 64 | 1002.6 |
| 20260509201533 | 20 | 291 | 9.7 | 24.1 | 0.00 | 1.55 | 0.58 | 65 | 1002.8 |
| 20260509200030 | 20 | 273 | 6.4 | 27.4 | 0.00 | 1.55 | 0.58 | 67 | 1003.1 |
| 20260509194530 | 19 | 267 | 9.7 | 24.1 | 0.00 | 1.55 | 0.58 | 64 | 1003.2 |
| 20260509193029 | 19 | 222 | 11.3 | 29.0 | 0.00 | 1.55 | 0.58 | 64 | 1003.6 |
| 20260509191537 | 18 | 253 | 9.7 | 25.7 | 0.00 | 1.55 | 0.58 | 66 | 1003.9 |
| 20260509190028 | 18 | 263 | 6.4 | 19.3 | 0.00 | 1.55 | 0.58 | 69 | 1004.1 |
| 20260509184531 | 18 | 257 | 9.7 | 22.5 | 0.00 | 1.55 | 0.58 | 67 | 1004.1 |
| 20260509183020 | 18 | 215 | 11.3 | 22.5 | 0.00 | 1.55 | 0.58 | 68 | 1004.3 |
| 20260509181518 | 17 | 262 | 12.9 | 27.4 | 0.00 | 1.55 | 0.58 | 67 | 1004.2 |
| 20260509180016 | 17 | 230 | 9.7 | 19.3 | 0.00 | 1.55 | 0.58 | 69 | 1004.0 |
| 20260509174520 | 17 | 285 | 4.8 | 25.7 | 0.00 | 1.55 | 0.58 | 71 | 1004.4 |
| 20260509173008 | 17 | 271 | 9.7 | 25.7 | 0.00 | 1.55 | 0.58 | 72 | 1004.4 |
| 20260509171507 | 17 | 244 | 6.4 | 22.5 | 0.00 | 1.55 | 0.58 | 72 | 1004.4 |
| 20260509170006 | 16 | 230 | 4.8 | 19.3 | 0.00 | 1.55 | 0.58 | 74 | 1004.3 |